This demonstration page uses our WeatherBlox Daily Observations layout. Learn more.

Left ArrowRight Arrow

34.74481, -87.66753

Hourly Observations for March 22, 2018

Temp ( °F °C ) Dew Point ( °F °C ) Humidity (%) Winds ( mph kmh ) Pressure ( in mb ) Visibility ( mi km ) Precip ( " mm )
12:53 am 00:53 Clear 41 5 31 -0.6 67 67 NW 5 7 30.26 1025 10 16 0.00 0.00
1:53 am 01:53 Clear 39 3.9 30 -1.1 70 70 Calm 30.27 1025 10 16 0.00 0.00
2:53 am 02:53 Clear 37 2.8 29 -1.7 73 73 WSW 3 6 30.29 1026 10 16 0.00 0.00
3:53 am 03:53 Clear 35 1.7 29 -1.7 78 78 Calm 30.29 1026 10 16 0.00 0.00
4:53 am 04:53 Clear 35 1.7 29 -1.7 78 78 Calm 30.30 1026 10 16 0.00 0.00
5:53 am 05:53 Clear 33 0.6 29 -1.7 85 85 Calm 30.31 1027 10 16 0.00 0.00
6:53 am 06:53 Sunny 32 0 27 -2.8 82 82 Calm 30.33 1027 9 14 0.00 0.00
7:53 am 07:53 Sunny 35 1.7 31 -0.6 85 85 WNW 5 7 30.36 1028 8 13 0.00 0.00
8:53 am 08:53 Sunny 41 5 32 0 70 70 W 6 9 30.39 1029 10 16 0.00 0.00
9:53 am 09:53 Sunny 48 8.9 28 -2.2 46 46 VRB 6 9 30.40 1029 10 16 0.00 0.00
10:53 am 10:53 Sunny 50 10 26 -3.3 39 39 NW 6 9 30.40 1030 10 16 0.00 0.00
11:53 am 11:53 Sunny 54 12.2 28 -2.2 37 37 NNW 8 13 30.38 1029 10 16 0.00 0.00
12:53 pm 12:53 Sunny 56 13.3 27 -2.8 33 33 WNW 7 11 30.37 1028 10 16 0.00 0.00
1:53 pm 13:53 Sunny 58 14.4 27 -2.8 31 31 NNW 7 11 30.34 1028 10 16 0.00 0.00
2:53 pm 14:53 Sunny 60 15.6 27 -2.8 28 28 NNW 10 17 30.32 1027 10 16 0.00 0.00
3:53 pm 15:53 Sunny 61 16.1 28 -2.2 29 29 NW 6 9 30.31 1026 10 16 0.00 0.00
4:53 pm 16:53 Sunny 60 15.6 27 -2.8 28 28 WNW 8 13 30.29 1026 10 16 0.00 0.00
5:53 pm 17:53 Sunny 60 15.6 27 -2.8 28 28 NW 8 13 30.29 1026 10 16 0.00 0.00
6:53 pm 18:53 Sunny 57 13.9 29 -1.7 34 34 NW 3 6 30.29 1026 10 16 0.00 0.00
7:53 pm 19:53 Clear 51 10.6 34 1.1 52 52 NW 3 6 30.30 1026 10 16 0.00 0.00
8:53 pm 20:53 Clear 49 9.4 35 1.7 59 59 NW 3 6 30.31 1027 10 16 0.00 0.00
9:53 pm 21:53 Clear 47 8.3 33 0.6 59 59 Calm 30.32 1027 10 16 0.00 0.00
10:53 pm 22:53 Clear 44 6.7 37 2.8 76 76 Calm 30.32 1027 10 16 0.00 0.00
11:53 pm 23:53 Clear 43 6.1 36 2.2 76 76 Calm 30.31 1027 10 16 0.00 0.00

Powered by AerisWeather